DLH651 UAAA-EDDF

Flight info

Callsign DLH651
Flight time N/A
Altitude 36000
Route TIPSA1A TIPSA M610 DIVNO N161 MASAV/K0882F380 N161 GASBI/N0476F380 N161 LEYLA N644 ADEKI DCT BADIR DCT LAGAS DCT NOLGA UN61 TBN UW71 CRM UL746 ODERO DCT OPT DCT TEGRI/N0468F400 DCT GAZDA DCT ARSIN DCT SITNI DCT SUBEN DCT AKINI T161 DEBHI DEBHI1C
Aircraft A343/H-SDE2E3FGHIJ4J5M1RWXY/LB1D1

Departure

Time 2026-05-08 00:42
Airport Almaty International Airport (UAAA)

Arrival

Time N/A
Airport Frankfurt Main Airport (EDDF)
Time Latitude Longitude Altitude Speed Heading
2026-05-08 00:25 43.35035 77.01260 2233 ft 0 kts 246°
2026-05-08 00:30 43.35039 77.01274 2233 ft 2 kts 246°
2026-05-08 00:31 43.35046 77.01294 2225 ft 2 kts 246°
2026-05-08 00:31 43.35053 77.01314 2227 ft 2 kts 246°
2026-05-08 00:31 43.35059 77.01335 2227 ft 2 kts 245°
2026-05-08 00:31 43.35066 77.01355 2233 ft 2 kts 245°
2026-05-08 00:32 43.35074 77.01375 2233 ft 2 kts 187°
2026-05-08 00:32 43.35086 77.01373 2231 ft 0 kts 155°
2026-05-08 00:34 43.35063 77.01387 2233 ft 9 kts 155°
2026-05-08 00:34 43.34969 77.01449 2228 ft 19 kts 152°
2026-05-08 00:34 43.34830 77.01550 2226 ft 26 kts 127°
2026-05-08 00:34 43.34809 77.01770 2230 ft 23 kts 93°
2026-05-08 00:35 43.34800 77.01980 2229 ft 21 kts 94°
2026-05-08 00:35 43.34789 77.02180 2232 ft 20 kts 95°
2026-05-08 00:35 43.34777 77.02369 2233 ft 19 kts 95°
2026-05-08 00:35 43.34773 77.02544 2225 ft 19 kts 86°
2026-05-08 00:36 43.34850 77.02750 2225 ft 30 kts 56°
2026-05-08 00:36 43.34986 77.03023 2225 ft 39 kts 55°
2026-05-08 00:36 43.35151 77.03358 2227 ft 46 kts 56°
2026-05-08 00:36 43.35338 77.03728 2226 ft 46 kts 55°
2026-05-08 00:37 43.35516 77.04083 2225 ft 44 kts 56°
2026-05-08 00:37 43.35678 77.04417 2227 ft 40 kts 56°
2026-05-08 00:37 43.35830 77.04729 2225 ft 38 kts 56°
2026-05-08 00:38 43.36114 77.05297 2224 ft 33 kts 56°
2026-05-08 00:38 43.36241 77.05553 2225 ft 31 kts 55°
2026-05-08 00:38 43.36361 77.05794 2227 ft 30 kts 55°
2026-05-08 00:38 43.36477 77.06027 2226 ft 29 kts 56°
2026-05-08 00:39 43.36591 77.06259 2225 ft 29 kts 56°
2026-05-08 00:39 43.36707 77.06494 2225 ft 29 kts 56°
2026-05-08 00:39 43.36819 77.06720 2227 ft 28 kts 56°
2026-05-08 00:39 43.36928 77.06933 2225 ft 26 kts 46°
2026-05-08 00:40 43.37030 77.07041 2228 ft 8 kts 77°
2026-05-08 00:40 43.37017 77.07061 2220 ft 5 kts 146°
2026-05-08 00:40 43.36991 77.07060 2224 ft 2 kts 204°
2026-05-08 00:40 43.36965 77.07015 2230 ft 10 kts 236°
2026-05-08 00:41 43.36915 77.06915 2231 ft 25 kts 235°
2026-05-08 00:41 43.36717 77.06520 2232 ft 74 kts 236°
2026-05-08 00:41 43.36342 77.05758 2226 ft 116 kts 236°
2026-05-08 00:41 43.35814 77.04703 2225 ft 150 kts 235°
2026-05-08 00:42 43.35174 77.03398 2298 ft 175 kts 235°
2026-05-08 00:42 43.34481 77.02008 2654 ft 178 kts 235°
2026-05-08 00:42 43.33764 77.00556 2971 ft 189 kts 234°
2026-05-08 00:42 43.33026 76.99076 3463 ft 190 kts 236°
2026-05-08 00:43 43.32389 76.97388 3686 ft 210 kts 253°
2026-05-08 00:43 43.32420 76.95268 3757 ft 242 kts 291°
2026-05-08 00:43 43.33490 76.93393 4124 ft 260 kts 321°
2026-05-08 00:43 43.34979 76.91901 4725 ft 268 kts 324°
2026-05-08 00:44 43.36526 76.90421 5389 ft 272 kts 323°
2026-05-08 00:44 43.38071 76.88911 6126 ft 273 kts 323°
2026-05-08 00:44 43.39617 76.87372 6802 ft 275 kts 322°
2026-05-08 00:44 43.41165 76.85813 7471 ft 277 kts 322°
2026-05-08 00:45 43.42725 76.84232 8148 ft 280 kts 323°
2026-05-08 00:45 43.44296 76.82628 8833 ft 282 kts 322°
2026-05-08 00:45 43.45717 76.80761 9498 ft 285 kts 306°
2026-05-08 00:45 43.46660 76.78369 10151 ft 285 kts 293°
2026-05-08 00:46 43.47433 76.75791 10522 ft 299 kts 292°
2026-05-08 00:46 43.48225 76.73057 10773 ft 315 kts 291°
2026-05-08 00:46 43.49061 76.70183 11001 ft 331 kts 292°
2026-05-08 00:46 43.49941 76.67176 11229 ft 346 kts 292°
2026-05-08 00:47 43.50861 76.64043 11470 ft 360 kts 292°
2026-05-08 00:47 43.51796 76.60859 11872 ft 367 kts 291°
2026-05-08 00:47 43.52758 76.57585 12398 ft 370 kts 291°
2026-05-08 00:47 43.53729 76.54286 12986 ft 372 kts 291°
2026-05-08 00:48 43.54697 76.50968 13576 ft 375 kts 291°
2026-05-08 00:48 43.55670 76.47619 14116 ft 378 kts 291°
2026-05-08 00:48 43.56650 76.44243 14607 ft 381 kts 291°
2026-05-08 00:48 43.57639 76.40835 15119 ft 384 kts 291°
2026-05-08 00:49 43.58635 76.37400 15647 ft 387 kts 291°
2026-05-08 00:49 43.59594 76.33925 16151 ft 390 kts 287°
2026-05-08 00:49 43.60131 76.30244 16685 ft 392 kts 276°
2026-05-08 00:49 43.60350 76.26480 17211 ft 395 kts 274°
2026-05-08 00:50 43.60522 76.22678 17715 ft 398 kts 274°
2026-05-08 00:50 43.60693 76.18850 18215 ft 401 kts 274°
2026-05-08 00:50 43.60868 76.14990 18658 ft 404 kts 274°
2026-05-08 00:50 43.61046 76.11111 19123 ft 406 kts 274°
2026-05-08 00:51 43.61225 76.07205 19578 ft 409 kts 274°
2026-05-08 00:51 43.61405 76.03285 20022 ft 411 kts 274°
2026-05-08 00:51 43.61585 75.99334 20466 ft 413 kts 274°
2026-05-08 00:51 43.61765 75.95364 20894 ft 416 kts 274°